Location: Avon School (historical)
(37.7514°N, 90.2201°W)
Time: 17:16:05
(UTC+00:00)

Explorer 7 - Visible Passes

Search period start: 14 December 2025 00:00
Search period end: 24 December 2025 00:00
Orbit: 435 x 553 km, 50.3° (Epoch: 13 December)

Date Brightness Start Highest point End Pass type
(mag) Time Alt. Az. Time Alt. Az. Time Alt. Az.
14 Dec 9.2 00:56:49 10° NW 00:57:23 12° NNW 00:57:23 12° NNW visible
15 Dec 8.9 00:33:15 10° NW 00:34:52 13° NNW 00:34:52 13° NNW visible
16 Dec 8.7 00:09:40 10° NW 00:11:27 13° NNW 00:12:19 12° N visible
16 Dec 8.8 23:46:04 10° NW 23:47:52 13° NNW 23:49:39 10° NNE visible
17 Dec 8.8 23:22:25 10° NW 23:24:16 13° NNW 23:26:05 10° NNE visible
20 Dec 8.8 00:15:28 10° NNW 00:16:22 11° N 00:16:22 11° N visible
20 Dec 8.7 23:51:46 10° NNW 23:53:05 12° N 23:53:46 11° NNE visible
21 Dec 8.7 23:28:02 10° NNW 23:29:23 12° N 23:30:43 10° NNE visible
23 Dec 8.6 00:42:03 10° NW 00:43:12 17° NNW 00:43:12 17° NNW visible
